Location: Del Amo
(33.8464°N, 118.2104°W)
Time: 13:56:37
(UTC+00:00)

S-56A Canister/Altair - All Passes

Search period start: 13 September 2024 00:00
Search period end: 23 September 2024 00:00
Orbit: 637 x 2487 km, 38.9° (Epoch: 12 September)

Date Brightness Start Highest point End Pass type
(mag) Time Alt. Az. Time Alt. Az. Time Alt. Az.
13 Sep - 00:54:09 10° S 00:58:08 24° SE 01:03:08 10° E daylight
13 Sep - 02:55:32 10° WSW 03:01:17 89° NNW 03:10:01 10° ENE visible
13 Sep - 04:59:07 10° W 05:06:22 64° N 05:17:33 10° E visible
13 Sep - 07:02:58 10° WNW 07:12:17 85° NNE 07:26:01 10° ESE visible
13 Sep - 09:07:22 10° WNW 09:18:12 52° SW 09:32:13 10° SE visible
13 Sep - 11:15:19 10° W 11:23:36 19° SW 11:32:39 10° S visible
14 Sep - 00:21:18 10° S 00:24:33 18° SE 00:28:19 10° E daylight
14 Sep - 02:22:01 10° WSW 02:27:23 82° SSE 02:35:21 10° ENE visible
14 Sep - 04:25:27 10° W 04:32:10 63° N 04:42:30 10° E visible
14 Sep - 06:29:11 10° WNW 06:37:51 80° NNE 06:50:54 10° ESE visible
14 Sep - 08:33:17 10° WNW 08:43:38 57° SSW 08:57:36 10° SE visible
14 Sep - 10:40:14 10° W 10:49:08 22° SW 10:59:10 10° S visible
14 Sep - 23:48:51 10° SSE 23:50:56 13° SE 23:53:12 10° ESE daylight
15 Sep - 01:48:31 10° SW 01:53:34 71° SSE 02:00:46 10° ENE daylight
15 Sep - 03:51:48 10° W 03:58:01 62° N 04:07:31 10° ENE visible
15 Sep - 05:55:27 10° WNW 06:03:29 75° NNE 06:15:47 10° ESE visible
15 Sep - 07:59:19 10° WNW 08:09:07 62° SSW 08:22:52 10° SE visible
15 Sep - 10:05:28 10° W 10:14:38 25° SW 10:25:24 10° S visible
16 Sep - 01:15:04 10° SW 01:19:48 60° SSE 01:26:18 10° ENE daylight
16 Sep - 03:18:09 10° W 03:23:56 62° N 03:32:39 10° ENE visible
16 Sep - 05:21:45 10° WNW 05:29:11 71° NNE 05:40:39 10° E visible
16 Sep - 07:25:26 10° WNW 07:34:39 67° SSW 07:48:03 10° SE visible
16 Sep - 09:30:56 10° W 09:40:08 28° SW 09:51:25 10° S visible
17 Sep - 00:41:38 10° SW 00:46:06 48° SSE 00:51:53 10° ENE daylight
17 Sep - 02:44:32 10° W 02:49:56 64° N 02:57:54 10° ENE visible
17 Sep - 04:48:06 10° WNW 04:54:57 66° NNE 05:05:33 10° E visible
17 Sep - 06:51:37 10° WNW 07:00:15 72° SSW 07:13:10 10° SE visible
17 Sep - 08:56:34 10° W 09:05:40 31° SW 09:17:15 10° SSE night (unlit)
18 Sep - 00:08:14 10° SW 00:12:26 38° SE 00:17:33 10° ENE daylight
18 Sep - 02:10:54 10° W 02:15:59 67° NNW 02:23:16 10° ENE visible
18 Sep - 04:14:27 10° WNW 04:20:48 63° N 04:30:31 10° E visible
18 Sep - 06:17:51 10° WNW 06:25:55 78° SSW 06:38:13 10° ESE visible
18 Sep - 08:22:22 10° W 08:31:13 35° SW 08:42:55 10° SSE night (unlit)
18 Sep - 23:34:52 10° SSW 23:38:47 30° SE 23:43:14 10° E daylight
19 Sep - 01:37:16 10° W 01:42:06 71° NNW 01:48:46 10° ENE daylight
19 Sep - 03:40:50 10° WNW 03:46:41 59° N 03:55:33 10° E visible
19 Sep - 05:44:08 10° WNW 05:51:39 84° SSW 06:03:15 10° ESE visible
19 Sep - 07:48:17 10° W 07:56:47 38° SW 08:08:28 10° SSE night (unlit)
19 Sep - 09:59:34 10° SW 10:02:02 11° SW 10:04:39 10° SSW night (unlit)
19 Sep - 23:01:34 10° SSW 23:05:08 23° SE 23:08:57 10° E daylight
20 Sep - 01:03:38 10° WSW 01:08:16 78° NNW 01:14:22 10° ENE daylight
20 Sep - 03:07:12 10° WNW 03:12:40 56° N 03:20:41 10° E visible
20 Sep - 05:10:29 10° WNW 05:17:26 89° NNE 05:28:17 10° ESE visible
20 Sep - 07:14:19 10° W 07:22:25 42° SSW 07:33:56 10° SSE visible
20 Sep - 09:23:07 10° WSW 09:27:38 13° SW 09:32:38 10° SSW night (unlit)
20 Sep - 22:28:21 10° S 22:31:28 18° SE 22:34:38 10° E daylight
21 Sep - 00:29:58 10° WSW 00:34:28 88° NNW 00:40:06 10° ENE daylight
21 Sep - 02:33:34 10° WNW 02:38:40 54° N 02:45:57 10° ENE visible
21 Sep - 04:36:50 10° WNW 04:43:18 83° NNE 04:53:19 10° ESE visible
21 Sep - 06:40:25 10° WNW 06:48:07 46° SSW 06:59:19 10° SE visible
21 Sep - 08:47:49 10° WSW 08:53:15 15° SW 08:59:31 10° SSW night (unlit)
21 Sep - 21:55:15 10° S 21:57:45 14° SE 22:00:12 10° ESE daylight
21 Sep - 23:56:17 10° WSW 00:00:43 80° SSE 00:05:55 10° ENE daylight
22 Sep - 01:59:54 10° WNW 02:04:42 52° N 02:11:19 10° ENE daylight
22 Sep - 04:03:13 10° WNW 04:09:13 76° NNE 04:18:25 10° ESE visible
22 Sep - 06:06:36 10° WNW 06:13:51 50° SSW 06:24:39 10° SE visible
22 Sep - 08:13:00 10° WSW 08:18:53 17° SW 08:25:57 10° S night (unlit)
22 Sep - 21:22:30 10° SSE 21:24:00 11° SE 21:25:27 10° ESE daylight
22 Sep - 23:22:35 10° SW 23:27:00 67° SSE 23:31:51 10° ENE daylight
